Duchifat 3
1 44854U 19089C   25092.63474559  .00066127  00000-0  16293-2 0  9998
2 44854  36.9468  65.1505 0004182 305.0081  55.0281 15.39488575292444
TO-108
1 44881U 19093C   25092.86515432  .00001942  00000-0  23134-3 0  9991
2 44881  97.7951 169.9299 0015330  94.2578 266.0389 14.85387319286028
FloripaSat 1
1 44885U 19093G   25092.81688374  .00011032  00000-0  95236-3 0  9999
2 44885  97.8153 180.3310 0011377  75.4629 284.7854 14.97378156286603
RS-44
1 44909U 19096E   25092.61597346  .00000013  00000-0  14342-5 0  9993
2 44909  82.5165 272.4415 0218459  94.5122 268.0968 12.79739831245990
UPMSat 2
1 46276U 20061E   25092.87178899  .00072087  00000-0  91825-3 0  9991
2 46276  97.2507 165.4254 0001868 151.0295 209.1066 15.59096000254886
SALSAT
1 46495U 20068K   25092.51173474  .00015468  00000-0  69193-3 0  9999
2 46495  97.8565  67.4819 0013360  46.7060 313.5287 15.21320326248177
CubeSX-Sirius-HSE
1 47951U 21022V   25092.84993223  .00178329  00000-0  17825-2 0  9996
2 47951  97.4242   2.1531 0009100 148.4729 211.7077 15.64980640223154
CubeSX-HSE
1 47952U 21022W   25092.87702277  .00173304  00000-0  16939-2 0  9990
2 47952  97.4248   2.4029 0009310 144.2628 215.9256 15.65559545223175
GRBAlpha
1 47959U 21022AD  25092.84584912  .00173178  00000-0  17167-2 0  9991
2 47959  97.4235   2.5050 0009078 148.3226 211.8581 15.65206840221994
Orbicraft-Zorkiy
1 47960U 21022AE  25092.85505260  .00831912  30328-3  21796-2 0  9992
2 47960  97.4140   6.7982 0010045 141.8063 218.3926 15.94827404222931
TUBIN
1 48900U 21059X   25092.80412660  .00068279  00000-0  10764-2 0  9995
2 48900  97.6717 256.8894 0003949 142.0894 218.0637 15.53313735209492
LEDSAT
1 49069U 21073D   25092.78474661  .00077896  00000-0  13311-2 0  9990
2 49069  97.3936 171.9580 0010333 320.5118  39.5380 15.50967558200896
CUTE
1 49263U 21088D   25092.44215528  .00025981  00000-0  57224-3 0  9990
2 49263  97.4531 166.8522 0010124 129.9099 230.3040 15.43874998193904
TeikyoSat 4
1 49396U 21102B   25092.57967526  .00004286  00000-0  28801-3 0  9994
2 49396  97.4190 133.4480 0012800  14.7645 345.3955 15.07225445186301
Z-Sat
1 49399U 21102E   25092.81100897  .00007893  00000-0  44151-3 0  9997
2 49399  97.3885 136.3651 0017574 343.9541  16.1132 15.13596151186729
KOSEN 1
1 49402U 21102H   25092.65513045  .00012758  00000-0  61052-3 0  9992
2 49402  97.3792 139.1368 0014852 320.6777  39.3378 15.19006545186971
HO-113
1 50466U 21131B   25092.84094492  .00001212  00000-0  39346-3 0  9991
2 50466  98.5086 182.5395 0003664 355.8938   4.2220 14.40686701171693
IRIS-A
1 51044U 22002BN  25092.71069357  .00186019  00000-0  14910-2 0  9998
2 51044  97.3311 169.5153 0001004 132.3773 227.7575 15.70464220179149
Foresail-1
1 52766U 22057AL  25092.39046601  .00150691  00000-0  13235-2 0  9997
2 52766  97.6036 237.3379 0005206 199.5793 160.5269 15.68326552159129
SNUGLITE 2
1 52899U 22065F   25092.37518959  .00002783  00000-0  55258-3 0  9991
2 52899  98.1572 235.0634 0006839 334.2774  25.8086 14.62942661146513
IO-117
1 53106U 22080B   25051.21822557 -.00000003  00000-0  00000+0 0  9995
2 53106  70.1434 106.3440 0008542  48.0089 312.1297  6.42557744 61200
UmKA 1 (RS40S)
1 57172U 23091G   25092.83626567  .00011816  00000-0  64804-3 0  9990
2 57172  97.5656 148.5909 0014523 202.9889 157.0694 15.14237124 97223
CubeBel-2 (EU11S)
1 57175U 23091K   25092.83094389  .00016446  00000-0  82084-3 0  9998
2 57175  97.5657 149.3539 0012400 211.1803 148.8695 15.17513096 97277
VERONIKA
1 58261U 23174F   25092.80054735  .00109137  00000-0  16987-2 0  9993
2 58261  97.4175 175.7834 0006712 271.9287  88.1197 15.53495683 78103
KAFASAT
1 58317U 23174BP  25091.62106398  .07821529  24928-5  14590-2 0  9998
2 58317  97.3838 180.0067 0013270 269.4347  90.5427 16.31943736 78302
ENSO
1 58470U 23185J   25092.87440714  .00064140  00000-0  12362-2 0  9997
2 58470  97.3791 166.2019 0006524 318.3743  41.7009 15.47618592 74531
EIRSAT-1
1 58472U 23185L   25092.87480830  .00096449  00000-0  14930-2 0  9992
2 58472  97.3767 167.2249 0005423 312.6372  47.4423 15.53703406 74601
SONATE-2
1 59112U 24043Q   25092.60897163  .00030571  00000-0  96577-3 0  9992
2 59112  97.5032 222.6035 0010932 358.3889   1.7316 15.32711040 59911
MO-122
1 60209U 24125G   25092.31017225  .00028996  00000-0  90427-3 0  9999
2 60209  97.2883 304.7921 0020438  26.3470 333.8807 15.32982468 41488
GRBBeta
1 60237U 24128C   25092.84389255  .00007460  00000-0  57202-3 0  9993
2 60237  61.9932 315.6015 0045526  42.9796 317.4836 15.01802984 40026
Curium One
1 60242U 24128H   25092.31589700  .00013056  00000-0  94006-3 0  9999
2 60242  61.9832 316.6362 0045283  38.4613 321.9691 15.03693570 39966
ROBUSTA-3A
1 60243U 24128J   25092.03294158  .00011251  00000-0  82218-3 0  9996
2 60243  61.9901 318.2371 0043535  36.0343 324.3669 15.03310339 39910
CatSat
1 60246U 24125J   25092.58963335  .00015965  00000-0  55934-3 0  9997
2 60246  97.2666 304.9990 0043224 338.2535  21.6869 15.28647224 39593
HYPERVIEW-1G (RS66S)
1 61772U 24199AP  25092.89823492  .00034347  00000-0  11086-2 0  9990
2 61772  97.3642 322.0113 0016343  77.7984 282.5087 15.31923990 66586
AO-123
1 61781U 24199AY  25092.85859186  .00012901  00000-0  48570-3 0  9996
2 61781  97.3649 321.4733 0017963  79.4103 280.9159 15.27087946 66540
ZIMSAT 2
1 61783U 24199BA  25092.87031273  .00050275  00000-0  14769-2 0  9997
2 61783  97.3629 322.1915 0016974  76.7914 283.5222 15.34820187 69746
POEM 4 (BGS ARPIT)
1 62461U 24253C   25092.55813830  .02768137  11750-4  67265-3 0  9997
2 62461  55.2015 167.8938 0006066 333.3900 106.0729 16.28648185 14739
HADES-R (SO-124)
1 62690U 25009CK  25092.76410737  .00059813  00000-0  25199-2 0  9996
2 62690  97.4123 174.0992 0001840 296.2864  63.8183 15.23113205 11805
HYDRA-T
1 62692U 25009CM  25092.49577882  .00056082  00000-0  23555-2 0  9992
2 62692  97.4123 173.8463 0001760 288.2585  71.8460 15.23236584 11767
DRAGON Fram2
1 63427U 25066A   25092.79553057  .00009623  00000-0  19924-3 0  9998
2 63427  90.0028 318.4988 0004395  74.5325 285.6420 15.45653101   267
Fram2Ham
1 90000U 25090A   25091.75964138  .00004870  00000-0  10103-3 0   139
2 90000  90.0002 318.5006 0004092  76.8776 283.3148 15.45677464   122
